Regional Weather Roundup
Issued by NWS Grand Forks, ND

Home | Current Version | Previous Version | Graphics & Text | Print | Product List | Glossary On
Versions: 1 2 3 4 5 6 7 8 9 10 11 12 13 14 15 16 17 18 19 20 21 22 23 24 25 26 27 28 29 30 31 32 33 34 35 36 37 38 39 40 41 42 43 44 45 46 47 48 49 50
398
ASUS43 KFGF 280810
RWRFGF
PRAIRIE TO PINES  WEATHER ROUNDUP
NATIONAL WEATHER SERVICE EASTERN NORTH DAKOTA/GRAND FORKS ND
300 AM CDT WED SEP 28 2016

 **SATELLITE DATA USED TO AUGMENT SKY COVER AT AUTOMATED STATIONS**
 *****  WEATHER ACROSS EASTERN NORTH DAKOTA  *****

CITY           SKY/WX    TMP DP  RH WIND       PRES   REMARKS
GRAND FORKS    CLOUDY    42  39  89 NW7       30.11R
GRAND FRKS AFB CLOUDY    43  40  89 NW5       30.12R
GRAND FRKS NWS   N/A     43 N/A N/A N3          N/A
DEVILS LAKE    CLOUDY    43  42  97 SE3       30.13R
FARGO          CLOUDY    41  38  89 N6        30.09R
WAHPETON ARPT  CLOUDY    41  37  87 N6        30.08R
$$

 ***** WEATHER ACROSS CENTRAL AND WESTERN NORTH DAKOTA  *****

CITY           SKY/WX    TMP DP  RH WIND       PRES   REMARKS
BISMARCK       CLOUDY    42  37  82 NE7       30.11R
MINOT          CLEAR     44  38  79 E3        30.09R
JAMESTOWN      CLOUDY    37  37 100 NW3       30.11R
MINOT AFB      CLEAR     42  36  80 SE6       30.09R
GARRISON         N/A     44  41  89 E5        30.09R
WILLISTON      CLEAR     53  46  77 NE3       30.06R
DICKINSON      CLEAR     50  43  77 S9        30.07R
HETTINGER      CLEAR     48  43  82 CALM      30.10R
$$

 *****  OTHER AIRPORT OBSERVATIONS IN OUR AREA  *****

CITY           SKY/WX    TMP DP  RH WIND       PRES   REMARKS
WALHALLA       FAIR      46  46 100 CALM      30.13R
GRAFTON AIRPOR FAIR      45  45 100 NW5       30.14R
VALLEY CITY AR CLOUDY    46  46 100 NE6       30.12R
CANDO          FAIR      37  37 100 E5        30.14R
CAVALIER APRT  FAIR      43  43 100 NW3       30.13R
GWINNER        CLOUDY    48  45  87 N9        30.09R
ROLLA          FAIR      34  34 100 CALM      30.13R
 ***** THE ABOVE OBSERVATIONS ARE NON NWS ARE NOT QUALITY
       CONTROLLED AND MAY MIS-REPORT RAIN FOR SNOW...
$$

  *****  WEATHER ACROSS NORTHERN MINNESOTA  *****

CITY           SKY/WX    TMP DP  RH WIND       PRES   REMARKS
FLAG ISLAND    PTCLDY    52  46  82 N10       30.09R
WARROAD        CLOUDY    45  41  87 NW6       30.11R
ROSEAU         CLOUDY    45  39  81 N5        30.10R
HALLOCK        CLOUDY    41  39  93 N3        30.12R
THF RVR FALLS    N/A     44  41  89 N9        30.10R
BAUDETTE       PTCLDY    47  45  93 N7        30.08R
WASKISH        CLEAR     46  45  93 CALM      30.06R
CROOKSTON      CLOUDY    43  39  87 N6        30.11R
GREENBUSH NDAW   N/A     39  37  93 W2          N/A
$$
  *****  WEATHER ACROSS CENTRAL AND WEST MINNESOTA  *****

CITY           SKY/WX    TMP DP  RH WIND       PRES   REMARKS
FOSSTON        CLOUDY    36  36 100 N7        30.09R
BEMIDJI        CLOUDY    43  43  99 NW3       30.06R
PARK RAPIDS    CLOUDY    47  43  86 N6G17     30.04R
ELBOW LAKE     FAIR      44  42  93 N7        30.06R
WADENA         CLOUDY    45  43  93 N7        30.03R
DETROIT LAKES  CLOUDY    46  43  87 N10       30.07R
MOORHEAD       CLOUDY    37  36  93 NW3       30.10R
FERGUS FALLS   CLOUDY    43  43 100 NW7       30.09R
MORRIS MN      CLEAR     41  39  93 NW7       30.04R
STAPLES        CLOUDY    46  45  93 N5        30.03R
$$
  *****  WEATHER ELSEWHERE ACROSS MINNESOTA  *****

CITY           SKY/WX    TMP DP  RH WIND       PRES   REMARKS
DULUTH         PTCLDY    50  48  93 N10       29.94R
INTRNTL FALLS  MOCLDY    49  47  93 NW12      30.05R
ELY            CLOUDY    50  48  93 CALM      29.99R
CLOQUET        PTCLDY    46  45  93 NW7       29.96R
WHEATON        NOT AVBL
BRAINERD       CLOUDY    49  46  90 N12       30.01R
HIBBING        MOCLDY    48  46  93 N8        29.99R
ALEXANDRIA     CLOUDY    47  44  90 N12       30.04R
SAINT CLOUD    CLOUDY    48  46  93 N6        29.99R
MINNEAPOLIS    CLOUDY    51  45  79 N14       29.95R
$$

  *****  WEATHER ACROSS SOUTH DAKOTA  *****

CITY           SKY/WX    TMP DP  RH WIND       PRES   REMARKS
SIOUX FALLS    CLEAR     47  41  80 N8        30.02R
BROOKINGS      MOCLDY    43  41  93 N5        30.03R
WATERTOWN      MOCLDY    44  42  93 N5        30.04R
HURON          CLOUDY    36  34  92 NW7       30.06R
SISSETON         N/A     45  41  86 NE8       30.06R
ABERDEEN       CLOUDY    39  36  89 N8        30.09R
MITCHELL       CLOUDY    43  36  76 NW6       30.06R
PIERRE         CLOUDY    47  40  76 NE8       30.07R
MOBRIDGE       CLOUDY    47  37  68 E6        30.07R
RAPID CITY     CLEAR     56  41  57 NW9       30.13R
$$

  *****  SOME WEATHER IN NEARBY STATES *****

CITY           SKY/WX    TMP DP  RH WIND       PRES   REMARKS
GLASGOW MT     CLEAR     57  46  66 W14       30.14R
GREAT FALLS MT CLEAR     43  38  82 W7        30.31R
CHEYENNE WY    CLOUDY    49  30  48 W12       30.29R
SCOTTSBLUFF NE CLEAR     49  41  74 NW7       30.17R
OMAHA NE       CLEAR     53  48  83 N9        29.94R
DES MOINES IA  CLOUDY    58  42  55 N9        29.90R
DAVENPORT IA   CLOUDY    53  46  77 N8        29.83R
CHICAGO IL     CLOUDY    54  44  69 N6        29.78R
EAU CLAIRE WI  CLOUDY    50  47  89 N9        29.87R
LA CROSSE WI   CLOUDY    52  48  86 N9        29.86R
$$

  *****  SOME NATIONAL WEATHER *****

CITY           SKY/WX    TMP DP  RH WIND       PRES   REMARKS
LA GUARDIA NY  MOCLDY    65  61  87 NE5       30.01R
RALEIGH NC     CLOUDY    70  68  93 CALM      29.91F
ATLANTA GA     PTCLDY    70  69  97 NW6       29.92R
NEW ORLEANS LA CLOUDY    81  70  69 N5        29.94S
OKLAHOMA CITY  CLEAR     58  50  75 SW7       30.00S
ALBUQUERQUE NM CLOUDY    56  41  57 E3        30.24R
SALT LAKE CITY CLEAR     58  50  75 SE7       30.14S
LOS ANGELES CA MOCLDY    77  54  44 SE5       29.88S
BOISE ID       CLEAR     65  40  39 SE10      30.02R
SEATTLE WA     MOCLDY    56  46  69 NE9       30.13S
$$

*** WEATHER ACROSS MANITOBA...SASKATCHEWAN AND ONTARIO ***
                ***ONTARIO***

CITY           SKY/WX    TMP DP  RH WIND       PRES   REMARKS
GERALDTON      PTCLDY    52  48  87 NE7       30.00R
THUNDER BAY    PTCLDY    52  48  87 N7        29.95R
SIOUX LOOKOUT  CLEAR     45  45 100 E2        30.06R
TORONTO        CLOUDY    57  46  67 NE5       29.90R
BIG TROUT LK   CLOUDY    50  50 100 CALM      30.10R
PICKLE LAKE    NOT AVBL
DRYDEN         CLOUDY    50  48  93 N5        30.08R
KENORA         CLOUDY    48  46  93 NW7       30.11R
$$
                *** MANITOBA***

CITY           SKY/WX    TMP DP  RH WIND       PRES   REMARKS
BRANDON        CLEAR     37  37 100 NE5       30.13R
DAUPHIN        CLEAR     32  30  93 W3        30.12R
ISLAND LAKE    CLOUDY    46  45  93 SW6       30.12R
PILOT MOUND    NOT AVBL
THE PAS        CLOUDY    46  45  93 SW3       30.09R
THOMPSON       CLOUDY    45  41  87 S7        30.07S
WINNIPEG       CLEAR     37  37 100 N2        30.13R
LYNN LAKE      CLEAR     45  43  93 W6        30.03R
CHURCHILL      CLOUDY    43  43 100 SW8       29.96F
GILLAM         DRIZZLE   45  45 100 SW8       30.06S
$$
                ***SASKATCHEWAN***

CITY           SKY/WX    TMP DP  RH WIND       PRES   REMARKS
ESTEVAN        PTCLDY    45  41  87 SE2       30.08R
KINDERSLEY     PTCLDY    45  36  70 N8        30.27R
LLOYDMINSTER   CLEAR     34  28  80 W7        30.28R
PRINCE ALBERT  CLEAR     46  43  87 W3        30.21R
REGINA         CLEAR     50  46  87 NW17      30.12R
YORKTON        CLEAR     45  36  70 S6        30.10R
N. BATTLEFORD  CLEAR     37  37 100 W3        30.29R
LA RONGE       CLEAR     43  41  93 W3        30.16R
SASKATOON      CLEAR     39  39 100 NW8       30.24R
SWIFT CURRENT  CLEAR     45  39  81 N9        30.24R
$$
NOTE: THESE ARE AUTOMATED STATIONS WITH LIMITED QUALITY CONTROL
      "FAIR" INDICATES FEW OR NO CLOUDS BELOW 12,000 FEET WITH NO
      SIGNIFICANT WEATHER AND/OR OBSTRUCTIONS TO VISIBILITY.
      SKY/WX - SKY CONDITION AND SIGNIFICANT WEATHER.
      TMP - AIR TEMPERATURE.    DP   - DEWPOINT TEMPERATURE.
      RH  - RELATIVE HUMIDITY.  PRES - PRESSURE.
      HX  - HEAT INDEX.         WCI  - WIND CHILL INDEX.
$




USA.gov is the U.S. government's official web portal to all federal, state and local government web resources and services.